GW5208 Weather Reports


Display with metric or nautical units.
time (UTC)temp
F
wind
direction
speed
MPH
gust
MPH
rain 1hr
in
rain 24hr
in
rain mn
in
humidity
%
barometer
mb
20260902133031 55 329 0.0 0.0 0.00 0.00 0.00 65 1008.5
20260902131517 55 329 0.0 0.0 0.00 0.00 0.00 65 1008.3
20260902130026 55 329 0.0 0.0 0.00 0.00 0.00 63 1008.4
20260902124504 55 329 0.0 0.0 0.00 0.00 0.00 63 1008.4
20260902123009 55 326 0.0 0.0 0.00 0.00 0.00 63 1008.2
20260902121516 55 326 0.0 0.0 0.00 0.00 0.00 62 1008.1
20260902120028 55 326 0.0 0.0 0.00 0.00 0.00 60 1008.1
20260902114551 56 321 0.0 0.0 0.00 0.00 0.00 59 1008.1
20260902113007 56 222 0.0 0.0 0.00 0.00 0.00 60 1008.3
20260902111515 56 213 0.0 0.0 0.00 0.00 0.00 60 1008.6
20260902110021 55 285 0.0 0.0 0.00 0.00 0.00 62 1008.6
20260902104527 54 219 0.0 0.0 0.00 0.00 0.00 65 1008.8
20260902103028 53 211 0.0 0.0 0.00 0.00 0.00 64 1008.8
20260902101511 52 209 0.0 0.0 0.00 0.00 0.00 65 1009.1
20260902100019 52 231 0.0 0.0 0.00 0.00 0.00 66 1008.9
20260902094523 53 270 0.0 0.0 0.00 0.00 0.00 62 1008.5
20260902093030 53 284 0.0 0.0 0.00 0.00 0.00 61 1008.5
20260902091530 54 320 0.0 0.0 0.00 0.00 0.00 60 1008.5
20260902090013 55 320 0.0 0.0 0.00 0.00 0.00 61 1008.5
20260902084523 55 320 0.0 0.0 0.00 0.00 0.00 60 1008.7
20260902083034 56 320 0.0 0.0 0.00 0.00 0.00 59 1008.7
20260902081530 56 320 0.0 0.0 0.00 0.00 0.00 56 1009.0
20260902080031 58 324 0.0 0.0 0.00 0.00 0.00 55 1008.8
20260902074524 58 340 0.0 0.0 0.00 0.00 0.00 54 1008.9
20260902073028 57 249 0.0 0.0 0.00 0.00 0.00 56 1009.1
20260902071514 57 154 0.0 0.0 0.00 0.00 0.00 55 1008.5
20260902070011 57 154 0.0 0.0 0.00 0.00 0.00 55 1008.5
20260902064517 57 128 0.0 0.0 0.00 0.00 0.00 56 1008.5
20260902063014 57 128 0.0 0.0 0.00 0.00 0.00 54 1008.7
20260902061521 58 128 0.0 0.0 0.00 0.00 0.00 53 1008.8
20260902060014 59 128 0.0 0.0 0.00 0.00 0.00 52 1008.8
20260902054525 60 128 0.0 0.0 0.00 0.00 0.00 51 1008.8
20260902053014 61 128 0.0 0.0 0.00 0.00 0.00 49 1009.0
20260902051519 62 128 0.0 0.0 0.00 0.00 0.00 48 1008.9
20260902050034 64 128 0.0 0.0 0.00 0.00 0.00 45 1008.9
20260902044514 66 138 0.0 0.0 0.00 0.00 0.00 43 1008.9
20260902043020 66 155 0.0 0.0 0.00 0.00 0.00 42 1008.9
20260902041523 67 147 0.0 0.0 0.00 0.00 0.00 40 1009.1
20260902040021 68 153 0.0 0.0 0.00 0.00 0.00 38 1009.1
20260902034521 67 79 0.0 0.0 0.00 0.00 0.00 39 1009.2
20260902033039 67 48 0.0 0.0 0.00 0.00 0.00 39 1009.2
20260902031522 67 91 0.0 0.0 0.00 0.00 0.00 38 1009.2
20260902030021 67 106 0.0 0.0 0.00 0.00 0.00 37 1009.2
20260902024533 68 106 0.0 0.0 0.00 0.00 0.00 36 1009.1
20260902023027 70 106 0.0 0.0 0.00 0.00 0.00 34 1009.1
20260902021538 73 106 0.0 0.0 0.00 0.00 0.00 31 1009.2
20260902020025 75 106 0.0 0.0 0.00 0.00 0.00 28 1009.2
20260902014533 78 106 0.0 0.0 0.00 0.00 0.00 26 1009.1
20260902013024 81 106 0.0 0.0 0.00 0.00 0.00 25 1009.1
20260902011519 84 104 0.0 0.0 0.00 0.00 0.00 23 1009.1
20260902010028 86 129 0.0 0.0 0.00 0.00 0.00 22 1009.1
20260902004508 87 103 0.0 0.0 0.00 0.00 0.00 22 1009.1
20260902003012 86 330 0.0 0.0 0.00 0.00 0.00 22 1009.1
20260902001520 86 144 0.0 0.0 0.00 0.00 0.00 21 1009.2
20260902000025 86 75 0.0 0.0 0.00 0.00 0.00 22 1009.3
20260901234530 85 245 0.0 0.0 0.00 0.00 0.00 23 1009.3
20260901233016 85 158 0.0 0.0 0.00 0.00 0.00 22 1009.4
20260901231514 85 198 0.0 0.0 0.00 0.00 0.00 22 1009.6
20260901230032 85 133 0.0 0.0 0.00 0.00 0.00 24 1009.7
20260901224526 85 167 0.0 0.0 0.00 0.00 0.00 21 1009.9
20260901223008 84 169 0.0 0.0 0.00 0.00 0.00 22 1010.0
20260901221534 84 195 0.0 0.0 0.00 0.00 0.00 22 1010.3
20260901220021 85 207 0.0 0.0 0.00 0.00 0.00 23 1010.6
20260901214536 84 250 0.0 0.0 0.00 0.00 0.00 23 1010.7
20260901213028 84 148 0.0 0.0 0.00 0.00 0.00 24 1010.8
20260901211529 84 187 0.0 0.0 0.00 0.00 0.00 29 1010.9
20260901210031 83 184 0.0 0.0 0.00 0.00 0.00 26 1011.1
20260901204522 83 155 0.0 0.0 0.00 0.00 0.00 25 1011.3
20260901203030 81 189 0.0 0.0 0.00 0.00 0.00 26 1011.4
20260901201531 81 157 0.0 0.0 0.00 0.00 0.00 27 1011.6
20260901200039 80 70 0.0 0.0 0.00 0.00 0.00 32 1011.8
20260901194533 79 98 0.0 0.0 0.00 0.00 0.00 29 1012.0
20260901193026 78 158 0.0 0.0 0.00 0.00 0.00 30 1012.2
20260901191506 78 231 0.0 0.0 0.00 0.00 0.00 32 1012.4
20260901190014 77 165 0.0 0.0 0.00 0.00 0.00 31 1012.7
20260901184520 76 82 0.0 0.0 0.00 0.00 0.00 35 1012.8
20260901183003 74 152 0.0 0.0 0.00 0.00 0.00 36 1013.0
20260901181507 73 162 0.0 0.0 0.00 0.00 0.00 36 1013.1
20260901180014 73 148 0.0 0.0 0.00 0.00 0.00 36 1013.1
20260901174520 72 164 0.0 0.0 0.00 0.00 0.00 38 1013.3
20260901173028 71 165 0.0 0.0 0.00 0.00 0.00 41 1013.4
20260901171503 69 103 0.0 0.0 0.00 0.00 0.00 46 1013.4
20260901170008 67 108 0.0 0.0 0.00 0.00 0.00 48 1013.6
20260901164516 65 137 0.0 0.0 0.00 0.00 0.00 50 1013.8
20260901163022 64 148 0.0 0.0 0.00 0.00 0.00 50 1013.8
20260901161504 63 150 0.0 0.0 0.00 0.00 0.00 50 1013.8
20260901160011 63 159 0.0 0.0 0.00 0.00 0.00 51 1013.9
20260901154521 61 139 0.0 0.0 0.00 0.00 0.00 54 1014.0
20260901153031 60 149 0.0 0.0 0.00 0.00 0.00 56 1013.8
20260901151529 58 152 0.0 0.0 0.00 0.00 0.00 60 1014.0
20260901150008 57 153 0.0 0.0 0.00 0.00 0.00 67 1014.2
20260901144515 54 145 0.0 0.0 0.00 0.00 0.00 74 1014.4
20260901143019 50 107 0.0 0.0 0.00 0.00 0.00 77 1014.4
20260901141525 49 107 0.0 0.0 0.00 0.00 0.00 77 1014.3
20260901140028 48 98 0.0 0.0 0.00 0.00 0.00 78 1014.1
20260901134510 46 68 0.0 0.0 0.00 0.00 0.00 78 1014.0